Location: Obersdorf
(47.4079°N, 10.2781°E)
Time: 02:18:49
(UTC+01:00)

XW-2C - Pass Details

Date: 11 December 2021
Orbit: 503 x 523 km, 97.5° (Epoch: 16 January)

Event Time Altitude Azimuth Distance (km) Brightness Sun altitude
Rises 06:05:06 0° 17° (NNE) 2,670 ? -17.9°
Reaches altitude 10° 06:07:16 10° 23° (NNE) 1,776 ? -17.5°
Maximum altitude 06:11:00 49° 99° (E) 679 ? -16.9°
Drops below altitude 10° 06:14:41 10° 176° (S) 1,755 ? -16.3°
Sets 06:16:49 0° 182° (S) 2,635 ? -16.0°
